Regional Weather Roundup
Issued by NWS

Home | Current Version | Previous Version | Text Only | Print | Product List | Glossary On
Versions: 1 2 3 4 5 6 7 8 9 10 11 12 13 14 15 16 17 18 19 20 21 22 23 24 25 26 27 28 29 30 31 32 33 34 35 36 37 38 39 40 41 42 43 44 45 46 47 48 49 50
000
ASUS43 KBIS 301902
RWRND

NORTH DAKOTA REGIONAL WEATHER ROUNDUP
NATIONAL WEATHER SERVICE BISMARCK ND
200 PM CDT TUE JUN 30 2015

NOTE: "FAIR" INDICATES FEW OR NO CLOUDS BELOW 12,000 FEET WITH NO
SIGNIFICANT WEATHER AND/OR OBSTRUCTIONS TO VISIBILITY.


NDZ001>003-009>011-017-302000-
NORTHWEST NORTH DAKOTA

CITY           SKY/WX    TMP DP  RH WIND       PRES   REMARKS
WILLISTON      CLOUDY    76  62  62 NE14      29.91S HAZE
MINOT          CLOUDY    72  63  73 VRB3      29.90F HAZE
MINOT AFB      CLOUDY    72  71  95 N3        29.90F
$$

NDZ018>021-031>035-040>046-302000-
SOUTHWEST NORTH DAKOTA

CITY           SKY/WX    TMP DP  RH WIND       PRES   REMARKS
BISMARCK       CLOUDY    72  65  78 E3        29.92F HAZE
DICKINSON      CLOUDY    74  64  71 SE14G20   29.91F
GARRISON         N/A     72  65  78 CALM      29.91S
HETTINGER ARPT CLOUDY    71  63  75 SE12      29.93F
$$

NDZ004>008-012>016-024-026-027-054-302000-
NORTHEAST NORTH DAKOTA

CITY           SKY/WX    TMP DP  RH WIND       PRES   REMARKS
GRAND FORKS    CLOUDY    74  57  55 CALM      29.93F
GRND FRKS AFB  CLOUDY    74  59  59 S7        29.94F
DEVILS LAKE    CLOUDY    68  57  68 SE8       29.93S
$$

NDZ022-023-025-028>030-036>039-047>053-302000-
SOUTHEAST NORTH DAKOTA

CITY           SKY/WX    TMP DP  RH WIND       PRES   REMARKS
FARGO          PTSUNNY   74  56  53 SE5       29.93F
JAMESTOWN      CLOUDY    70  61  73 SE8       29.93F
$$



USA.gov is the U.S. government's official web portal to all federal, state and local government web resources and services.